SCP
0 0 0 0 0 0 0 0 0 0 0 0 0 0 0 0 0 0 0 -0 0 0 0 0 0 -0 0 0 0 -0 -0 -0 -0 -0 -0 -0 -0 -0 -0 -0 -0 -0 -0 -0 -0 -0 -0 -0 -0
0 0 0 0 0 0 0 0 0 0 0 0 0 0 0 0 0 0 0 0 0 0 0 0 0 0 0 0 0 0 -0 -0 -0 -0 -0 -0 -0 -0 -0 -0 -0 -0 -0 -0 -0 -0 -0 -0 -0
0 0 0 0 0 0 0 0 0 0 0 0 0 0 0 0 0 0 -0 0 0 0 0 0 0 0 0 0 0 0 0 -0 -0 -0 -0 -0 -0 -0 -0 -0 0 -0 -0 -0 -0 -0 -0 -0 -0
0 0 0 0 0 0 0 0 0 0 0 0 0 0 0 0 0 0 0 0 0 0 0 0 0 0 0 0 0 0 0 0 0 0 -0 -0 0 0 0 0 0 -0 -0 -0 -0 -0 -0 -0 -0
0 0 0 0 0 0 0 0 0 0 0 0 0 0 0 0 0 0 0 0 0 0 0 1 1 0 0 0 0 0 0 0 0 0 0 0 0 0 0 0 0 0 -0 -0 -0 -0 -0 -0 -0
0 0 0 0 0 0 0 0 0 0 0 0 0 0 0 0 0 0 0 0 0 0 1 0 1 1 0 0 0 0 0 0 0 0 0 0 0 0 0 0 0 0 0 0 0 0 0 0 0
0 0 0 0 0 0 0 0 0 0 0 0 0 0 0 0 0 -0 -0 0 0 1 1 0 0 0 0 0 0 0 0 0 0 0 0 0 0 0 0 0 0 0 0 0 0 0 0 0 0
0 0 0 0 0 0 0 0 0 0 0 0 0 0 0 0 0 0 0 1 0 0 1 1 0 0 0 0 0 0 0 0 0 0 0 0 0 0 0 0 0 0 0 0 0 0 0 0 0
0 0 0 0 0 0 0 0 0 0 0 0 0 0 0 0 0 0 1 1 1 1 1 1 1 0 0 0 0 0 0 0 0 0 0 0 0 0 0 0 0 0 0 0 0 0 0 0 0
0 0 0 0 0 0 0 0 0 0 0 0 0 0 0 0 0 0 1 1 0 1 1 1 1 0 0 0 0 0 0 0 0 0 0 0 0 0 0 0 0 0 0 0 0 0 0 0 0
0 0 0 0 0 0 0 0 0 0 0 0 0 0 0 0 0 0 0 1 1 1 1 1 1 1 0 0 0 0 0 0 0 0 0 0 0 0 0 0 0 0 0 0 0 0 0 0 0
0 0 0 0 0 0 0 0 0 0 0 0 0 0 0 0 0 0 0 0 0 0 1 1 1 1 0 0 0 0 0 0 0 0 0 0 0 0 0 0 0 0 0 0 0 0 0 0 0
0 0 0 0 0 0 0 0 0 0 0 0 0 0 0 0 0 0 0 0 0 0 0 0 0 0 0 0 0 0 0 0 0 0 0 0 0 0 0 0 0 0 0 0 0 0 0 0 0
0 0 0 0 0 0 0 0 0 0 0 0 0 0 0 0 0 0 0 0 0 0 0 0 0 0 0 0 0 0 0 0 0 0 0 0 0 0 0 0 0 0 0 0 0 0 0 0 0
0 0 0 0 0 0 0 0 0 0 0 0 0 0 0 0 0 0 0 0 0 1 0 0 0 0 0 0 0 0 0 0 0 0 0 0 0 0 0 0 0 0 0 0 0 0 0 0 0
0 0 0 0 0 0 0 0 0 0 -0 -0 -0 -0 0 0 0 0 0 0 0 0 0 0 0 0 0 0 0 0 0 0 0 0 0 0 0 0 0 0 0 0 0 0 0 0 0 0 0
0 0 0 0 0 0 0 0 0 0 -0 0 0 -0 0 0 0 0 0 0 0 0 1 0 0 0 0 0 0 0 0 0 0 0 0 0 0 0 0 0 0 0 0 0 0 0 0 0 0
0 0 0 0 0 -0 -0 -0 0 0 0 0 0 -0 0 0 0 0 0 0 0 0 1 0 0 0 0 0 0 0 0 0 0 0 0 0 0 0 0 0 0 0 0 0 0 0 0 0 0
0 0 0 0 0 0 -0 -0 0 0 0 0 0 0 -0 0 0 0 0 0 0 0 0 0 0 0 0 0 0 0 0 0 0 0 0 0 0 0 0 0 0 0 0 0 0 0 0 0 0
0 0 0 0 0 0 0 0 0 0 0 0 -0 -0 -0 0 0 0 0 0 0 0 0 0 0 0 0 0 0 0 0 0 0 0 0 0 0 0 0 0 0 0 0 0 0 0 0 0 0
0 0 0 0 0 0 0 0 0 0 0 0 -0 -0 -0 0 0 0 0 0 0 0 0 0 0 0 0 0 0 0 0 0 0 0 0 0 0 0 0 0 0 0 0 0 0 0 0 0 0
-0 -0 -0 0 0 0 0 0 0 0 0 0 -0 -0 -0 0 0 0 0 0 0 0 0 0 0 0 0 0 0 0 0 0 0 0 0 0 0 0 0 0 0 0 0 0 0 0 0 0 0
-0 -0 0 0 0 0 0 0 0 0 0 0 -0 -0 -0 0 0 0 0 0 0 0 0 0 0 0 0 0 0 0 0 0 0 0 0 0 0 0 0 0 0 0 0 0 0 0 0 0 0
0 0 0 0 0 0 -0 0 -0 0 0 0 0 -0 0 0 0 0 0 0 0 0 0 0 0 0 0 0 0 0 0 0 0 0 0 0 0 0 0 0 0 0 0 0 0 0 0 0 0
0 0 0 0 0 0 0 0 -0 -0 0 0 0 0 0 0 0 0 0 0 0 0 0 0 0 0 0 0 0 0 0 0 0 0 0 0 0 0 0 0 0 0 0 0 0 0 0 0 0
0 0 0 0 0 0 0 0 0 0 0 -0 0 0 0 0 0 0 0 0 0 0 0 0 0 0 0 0 0 0 0 0 0 0 0 0 0 0 0 0 0 0 0 0 0 0 0 0 0
0 0 0 0 0 0 0 0 0 -0 0 0 0 0 0 0 0 0 0 0 0 0 0 0 0 0 0 0 0 0 0 0 0 0 0 0 0 0 0 0 0 0 0 0 0 0 0 0 0
0 0 0 0 0 0 0 0 -0 -0 -0 0 0 0 0 0 0 0 0 0 0 0 0 0 0 0 0 0 0 0 0 0 0 0 0 0 0 0 0 0 0 0 0 0 0 0 0 0 0
0 0 0 0 0 0 -0 -0 -0 0 0 0 0 0 0 0 0 0 0 0 0 0 0 0 0 0 0 0 0 0 0 0 0 0 0 0 0 0 0 0 0 0 0 0 0 0 0 0 0
0 0 0 -0 0 0 -0 0 0 0 0 0 0 0 0 0 0 0 0 0 0 0 0 0 0 0 0 0 0 0 0 0 0 0 0 0 0 0 0 0 0 0 0 0 0 0 0 0 0
Wind_Speed_500mb
20 19 14 8 13 12 29 25 16 9 8 8 7 16 13 10 10 4 15 9 21 50 57 53 48 47 48 46 43 41 39 40 37 33 31 28 27 24 20 20 30 34 34 25 32 29 30 34 32
17 14 11 7 17 30 29 28 27 22 10 3 9 14 15 15 19 18 22 14 23 50 57 56 51 48 48 45 44 41 41 40 37 34 33 30 26 23 18 20 27 28 32 30 29 27 33 32 30
16 13 15 9 26 41 35 25 33 26 15 16 12 14 9 7 7 11 17 14 29 50 58 57 53 50 48 45 43 41 41 39 37 35 33 32 29 20 14 13 18 26 34 29 25 30 33 32 31
10 10 11 25 47 40 46 35 29 26 24 16 13 16 9 14 9 19 29 19 35 52 56 58 54 50 47 45 42 41 40 40 38 39 36 35 28 20 11 7 14 25 31 28 29 30 29 29 27
19 11 23 34 56 53 21 28 36 28 20 13 5 10 10 12 16 24 22 20 41 56 57 57 55 50 46 45 43 42 42 40 40 39 39 39 30 25 18 9 15 24 30 28 27 27 27 27 26
16 16 21 44 57 48 44 33 22 28 30 25 19 26 21 16 23 30 22 20 46 60 59 54 55 50 46 42 42 42 43 44 42 41 42 40 32 28 20 12 14 23 26 23 23 24 25 24 22
20 19 41 47 49 47 47 44 47 42 39 31 15 15 15 19 19 19 10 22 46 62 60 54 54 51 46 42 42 42 44 45 48 45 45 41 36 30 21 14 13 21 24 24 23 23 22 20 18
11 12 28 37 41 55 29 22 30 49 56 53 34 16 25 4 23 25 16 32 40 57 61 59 54 52 49 45 42 42 43 48 50 49 46 42 38 31 22 17 16 19 25 25 24 22 19 17 16
10 14 28 40 34 32 28 28 33 12 16 24 28 31 11 17 31 25 10 28 38 54 62 64 56 52 50 47 46 44 43 46 51 51 47 43 41 32 25 22 21 27 27 25 24 21 18 16 15
19 15 24 16 10 18 15 13 14 12 28 26 27 20 11 16 19 14 20 33 41 52 64 68 63 58 51 49 50 50 48 45 49 51 51 52 45 36 28 25 24 24 28 27 25 22 19 18 16
9 17 12 23 15 21 21 28 23 17 28 27 25 19 28 29 20 20 23 37 48 50 65 66 64 63 59 53 52 47 51 50 52 55 57 56 45 38 32 30 29 30 32 31 29 26 23 21 19
16 21 24 21 23 25 31 32 36 34 37 27 27 24 30 34 29 24 31 36 51 55 65 58 64 67 68 62 62 60 59 60 57 59 60 55 48 41 36 31 29 34 39 36 32 28 24 21 20
27 29 29 31 36 40 43 46 42 54 41 39 50 48 44 40 31 28 27 36 39 55 64 56 57 73 75 69 68 67 66 65 65 66 61 56 50 42 37 34 32 38 40 37 33 30 26 23 21
19 32 42 41 36 29 33 43 42 46 33 32 31 40 40 41 36 37 29 31 42 50 63 72 71 74 79 72 72 72 68 65 66 66 63 58 50 41 36 34 34 40 40 38 34 30 27 24 22
25 34 36 41 41 32 30 45 51 43 44 53 49 45 45 51 49 46 37 33 35 46 61 70 68 71 81 80 75 76 73 68 67 67 62 57 49 41 36 35 36 41 43 39 36 33 28 25 24
21 26 24 5 13 14 20 50 32 17 28 40 44 47 56 47 48 51 46 41 38 41 49 68 73 74 82 81 77 77 74 74 71 67 61 56 47 42 39 39 39 43 44 42 38 32 27 23 23
17 23 36 34 31 10 27 38 28 18 36 48 53 53 52 49 47 45 46 42 44 42 49 63 74 66 81 82 79 76 79 78 75 71 65 59 52 47 42 43 43 45 47 45 40 33 27 25 22
21 25 31 32 1 27 29 49 41 48 42 46 45 37 38 45 57 45 41 43 46 44 52 59 68 64 71 82 81 75 78 81 80 75 72 64 57 53 48 46 46 47 49 48 45 38 35 27 23
38 40 49 39 16 23 38 46 51 50 47 49 51 49 50 56 46 50 51 51 49 45 51 57 57 52 52 79 87 79 75 79 85 80 77 68 62 59 53 50 48 51 54 53 47 42 38 35 32
45 48 55 52 36 27 42 50 49 45 45 56 54 52 45 48 46 37 46 53 49 46 54 60 62 58 51 71 87 82 73 74 84 86 84 74 68 64 58 54 52 54 54 54 51 51 42 41 42
43 50 48 48 23 34 39 43 47 50 50 63 65 60 55 55 48 43 43 48 45 44 51 60 69 61 57 64 63 75 64 66 76 92 85 78 74 66 61 57 57 56 55 58 57 56 55 45 50
45 48 51 46 25 22 28 19 31 38 39 43 60 60 59 57 52 41 45 43 43 42 52 65 65 58 62 80 78 83 83 85 88 95 87 81 82 72 68 61 61 60 62 62 61 61 62 55 55
37 23 24 33 29 36 45 16 34 39 36 42 45 54 58 59 50 43 47 43 41 43 49 58 61 71 75 68 84 83 84 81 79 84 88 87 83 77 72 68 64 65 66 63 65 67 65 62 59
7 4 9 18 19 23 36 33 33 35 43 45 47 53 59 45 40 47 45 37 35 36 41 52 56 54 46 75 84 83 70 77 83 85 80 88 85 81 76 73 70 68 68 68 70 69 67 67 68
9 12 6 9 11 16 4 23 35 21 17 18 26 51 43 46 49 46 40 36 31 31 31 41 45 45 39 54 45 58 66 43 72 66 79 84 89 87 82 77 75 74 72 72 74 73 75 76 77
20 14 9 12 10 9 7 13 6 23 28 40 41 45 50 53 46 41 38 37 32 30 32 30 30 28 27 29 26 35 40 48 47 56 68 85 88 86 85 86 82 78 78 76 75 80 86 81 92
11 19 10 11 11 13 12 3 7 32 16 20 42 41 46 46 46 39 37 36 34 33 37 37 36 28 25 28 30 34 47 55 60 61 57 99 84 76 76 82 91 82 79 78 81 77 83 84 88
11 3 8 10 8 9 8 6 21 30 20 24 31 37 48 44 49 44 41 43 40 39 37 32 29 23 16 19 18 22 32 43 47 49 68 71 87 66 59 53 51 62 58 53 55 71 65 67 61
14 10 11 7 11 9 6 7 25 25 21 20 23 39 47 51 53 49 47 50 49 42 38 31 27 21 21 17 16 11 13 14 22 24 30 24 35 27 25 44 48 62 69 59 56 55 45 49 42
15 20 9 8 5 9 5 9 29 22 22 23 38 43 49 60 54 51 52 58 63 56 47 42 36 28 24 24 25 25 19 19 19 26 23 21 24 23 19 27 32 32 30 33 33 42 34 36 33
Wind_Direction_500mb
251 260 274 310 241 235 237 226 257 196 196 193 175 213 228 282 214 263 310 290 198 179 182 181 183 184 178 181 180 177 177 177 173 175 169 166 152 134 129 122 128 140 136 142 147 134 126 132 132
234 242 253 246 243 238 233 229 228 220 144 165 246 227 244 249 252 278 293 261 211 178 184 182 184 188 183 182 184 180 180 180 177 178 174 171 159 140 127 133 149 157 145 143 146 136 131 134 133
223 205 224 220 237 241 243 199 242 227 229 260 268 248 244 232 268 278 301 267 194 180 184 185 184 188 185 185 183 181 180 179 178 176 173 171 164 152 140 146 158 148 153 145 152 134 137 134 129
182 196 233 238 238 237 248 243 249 247 240 238 245 254 235 239 306 298 298 282 196 184 184 188 184 187 187 188 186 184 184 180 178 176 174 176 167 151 170 164 176 156 156 153 143 139 137 135 131
191 209 230 235 247 245 218 257 241 248 249 207 213 230 259 285 293 306 297 262 200 187 189 190 187 187 189 192 191 191 191 189 185 185 182 181 173 165 185 160 171 163 157 169 148 143 138 134 133
201 229 230 232 236 239 240 223 228 236 245 250 258 267 266 269 310 311 294 226 195 189 191 192 192 190 194 196 197 196 198 195 194 192 188 186 180 181 185 164 164 167 170 170 158 148 143 139 137
239 216 240 245 243 239 230 221 233 240 240 234 253 266 275 303 312 333 239 210 197 190 193 194 198 196 199 198 199 199 201 199 197 196 193 190 185 189 190 182 180 179 178 176 170 163 153 147 143
236 256 246 240 245 246 226 232 238 234 250 250 245 251 256 279 326 342 214 197 200 195 196 195 200 202 201 200 201 202 200 202 195 195 198 194 190 196 196 195 203 197 187 182 179 175 166 160 154
214 244 248 243 240 244 242 252 234 274 262 232 231 239 265 316 314 316 244 202 198 197 200 199 201 203 203 202 200 197 193 189 190 191 196 191 193 197 199 205 222 203 192 187 184 185 179 175 173
220 239 257 272 298 254 285 259 285 288 233 237 236 233 293 337 307 282 260 219 209 205 204 202 206 207 206 202 201 194 189 190 193 189 189 194 194 197 190 206 205 198 192 192 192 192 190 187 186
231 248 286 261 287 296 282 277 267 262 250 241 262 289 276 296 300 269 260 241 230 224 206 206 210 211 211 204 198 190 192 189 192 191 191 194 196 201 202 208 211 208 197 197 198 198 197 195 193
263 255 261 272 283 292 275 282 270 260 266 277 279 285 295 289 289 276 260 258 247 225 217 213 217 214 214 210 203 198 194 191 191 194 191 199 203 201 207 205 205 205 202 203 203 204 205 205 206
257 269 269 269 267 269 274 264 266 269 265 272 278 280 280 278 281 276 267 256 259 230 217 219 231 222 217 212 207 205 202 198 194 196 200 206 207 209 210 213 216 208 206 207 208 209 212 215 213
289 284 280 270 267 266 266 265 259 256 267 266 268 275 269 264 273 275 274 258 255 246 226 219 222 229 224 214 212 208 207 204 203 204 206 206 210 212 216 216 215 210 209 211 211 214 216 218 214
284 290 289 268 252 250 256 265 250 258 252 259 257 264 266 261 264 269 270 261 253 252 233 231 224 233 228 217 214 210 209 209 206 209 207 210 214 217 221 222 217 213 212 212 214 213 215 213 210
276 278 283 312 230 235 203 268 261 267 234 247 248 252 257 262 263 261 263 260 256 254 246 232 228 228 227 224 218 214 208 212 211 211 209 213 220 223 225 226 219 214 214 215 213 213 212 204 200
222 265 249 271 236 233 207 265 277 261 248 257 261 253 256 260 259 256 258 256 256 257 245 232 225 231 232 230 225 221 210 214 213 217 217 220 226 230 230 227 219 212 214 216 215 213 208 203 201
243 240 252 251 129 220 232 249 262 268 264 262 261 257 251 261 253 255 254 258 260 254 239 238 227 227 226 227 223 223 217 215 217 221 222 222 225 232 229 223 219 213 215 216 214 211 206 200 204
272 268 269 271 279 252 242 254 263 262 262 260 257 256 253 259 260 256 251 259 253 256 237 235 219 222 225 221 214 216 221 217 219 222 226 223 226 230 228 223 222 218 217 217 215 208 200 202 204
249 257 259 269 254 236 258 258 261 263 258 259 260 250 249 252 253 251 239 248 243 246 230 234 226 220 218 230 222 222 223 222 220 224 226 224 226 229 228 225 224 218 215 213 210 206 203 206 209
237 239 256 254 279 237 265 268 263 258 249 253 252 249 247 247 252 244 239 236 234 236 225 231 227 222 227 231 231 228 228 227 231 231 226 223 227 230 229 228 226 221 218 216 214 209 207 209 211
255 238 250 262 256 250 201 269 262 251 243 241 248 239 234 238 240 241 234 227 223 220 221 219 222 220 227 245 234 228 217 216 223 228 226 227 228 228 227 229 228 224 222 220 218 214 214 214 216
268 287 235 240 251 264 248 254 258 250 255 247 245 236 226 229 229 217 225 216 217 212 220 215 215 220 219 221 228 225 224 221 221 229 227 227 228 228 229 229 228 225 226 226 222 221 221 223 221
294 128 202 237 246 247 249 220 263 245 243 254 243 224 217 211 194 208 209 197 198 206 211 217 230 211 215 204 219 218 216 229 228 226 234 232 229 228 229 229 229 227 227 227 225 226 228 229 228
163 160 210 224 218 254 312 208 253 323 238 241 263 213 186 170 188 189 184 178 178 183 189 212 220 222 219 210 208 216 231 225 209 234 237 239 230 230 230 230 229 227 228 229 230 231 233 232 231
192 192 195 239 224 287 145 238 231 314 272 259 256 165 150 160 170 170 166 163 171 173 168 169 194 193 206 224 217 225 238 251 238 237 241 236 245 238 232 233 231 230 231 234 237 239 241 243 238
169 218 204 275 244 272 200 307 212 349 314 157 120 133 115 136 152 146 142 150 154 158 156 161 175 186 210 226 234 243 251 256 249 256 261 227 236 244 242 240 231 229 234 239 240 256 248 252 246
258 114 193 212 265 234 93 54 336 339 6 114 108 107 107 121 130 126 128 135 134 138 140 144 155 165 181 236 250 253 248 249 252 257 245 238 232 228 215 224 232 222 241 259 262 246 247 253 230
319 269 247 233 236 313 62 23 343 8 26 74 95 99 102 105 113 115 119 121 119 122 128 129 134 141 169 181 179 188 197 208 217 209 206 186 199 213 242 226 229 245 250 257 225 228 235 225 231
293 292 235 271 76 48 81 42 353 21 35 65 78 85 90 105 106 112 115 114 110 110 109 108 105 112 119 127 132 132 128 119 142 162 166 181 203 188 211 239 228 223 213 224 209 199 207 205 187
Wind_Speed_850mb
20 19 14 8 13 12 29 25 16 9 8 8 7 16 13 10 10 4 15 9 21 50 57 53 48 47 48 46 43 41 39 40 37 33 31 28 27 24 20 20 30 34 34 25 32 29 30 34 32
17 14 11 7 17 30 29 28 27 22 10 3 9 14 15 15 19 18 22 14 23 50 57 56 51 48 48 45 44 41 41 40 37 34 33 30 26 23 18 20 27 28 32 30 29 27 33 32 30
16 13 15 9 26 41 35 25 33 26 15 16 12 14 9 7 7 11 17 14 29 50 58 57 53 50 48 45 43 41 41 39 37 35 33 32 29 20 14 13 18 26 34 29 25 30 33 32 31
10 10 11 25 47 40 46 35 29 26 24 16 13 16 9 14 9 19 29 19 35 52 56 58 54 50 47 45 42 41 40 40 38 39 36 35 28 20 11 7 14 25 31 28 29 30 29 29 27
19 11 23 34 56 53 21 28 36 28 20 13 5 10 10 12 16 24 22 20 41 56 57 57 55 50 46 45 43 42 42 40 40 39 39 39 30 25 18 9 15 24 30 28 27 27 27 27 26
16 16 21 44 57 48 44 33 22 28 30 25 19 26 21 16 23 30 22 20 46 60 59 54 55 50 46 42 42 42 43 44 42 41 42 40 32 28 20 12 14 23 26 23 23 24 25 24 22
20 19 41 47 49 47 47 44 47 42 39 31 15 15 15 19 19 19 10 22 46 62 60 54 54 51 46 42 42 42 44 45 48 45 45 41 36 30 21 14 13 21 24 24 23 23 22 20 18
11 12 28 37 41 55 29 22 30 49 56 53 34 16 25 4 23 25 16 32 40 57 61 59 54 52 49 45 42 42 43 48 50 49 46 42 38 31 22 17 16 19 25 25 24 22 19 17 16
10 14 28 40 34 32 28 28 33 12 16 24 28 31 11 17 31 25 10 28 38 54 62 64 56 52 50 47 46 44 43 46 51 51 47 43 41 32 25 22 21 27 27 25 24 21 18 16 15
19 15 24 16 10 18 15 13 14 12 28 26 27 20 11 16 19 14 20 33 41 52 64 68 63 58 51 49 50 50 48 45 49 51 51 52 45 36 28 25 24 24 28 27 25 22 19 18 16
9 17 12 23 15 21 21 28 23 17 28 27 25 19 28 29 20 20 23 37 48 50 65 66 64 63 59 53 52 47 51 50 52 55 57 56 45 38 32 30 29 30 32 31 29 26 23 21 19
16 21 24 21 23 25 31 32 36 34 37 27 27 24 30 34 29 24 31 36 51 55 65 58 64 67 68 62 62 60 59 60 57 59 60 55 48 41 36 31 29 34 39 36 32 28 24 21 20
27 29 29 31 36 40 43 46 42 54 41 39 50 48 44 40 31 28 27 36 39 55 64 56 57 73 75 69 68 67 66 65 65 66 61 56 50 42 37 34 32 38 40 37 33 30 26 23 21
19 32 42 41 36 29 33 43 42 46 33 32 31 40 40 41 36 37 29 31 42 50 63 72 71 74 79 72 72 72 68 65 66 66 63 58 50 41 36 34 34 40 40 38 34 30 27 24 22
25 34 36 41 41 32 30 45 51 43 44 53 49 45 45 51 49 46 37 33 35 46 61 70 68 71 81 80 75 76 73 68 67 67 62 57 49 41 36 35 36 41 43 39 36 33 28 25 24
21 26 24 5 13 14 20 50 32 17 28 40 44 47 56 47 48 51 46 41 38 41 49 68 73 74 82 81 77 77 74 74 71 67 61 56 47 42 39 39 39 43 44 42 38 32 27 23 23
17 23 36 34 31 10 27 38 28 18 36 48 53 53 52 49 47 45 46 42 44 42 49 63 74 66 81 82 79 76 79 78 75 71 65 59 52 47 42 43 43 45 47 45 40 33 27 25 22
21 25 31 32 1 27 29 49 41 48 42 46 45 37 38 45 57 45 41 43 46 44 52 59 68 64 71 82 81 75 78 81 80 75 72 64 57 53 48 46 46 47 49 48 45 38 35 27 23
38 40 49 39 16 23 38 46 51 50 47 49 51 49 50 56 46 50 51 51 49 45 51 57 57 52 52 79 87 79 75 79 85 80 77 68 62 59 53 50 48 51 54 53 47 42 38 35 32
45 48 55 52 36 27 42 50 49 45 45 56 54 52 45 48 46 37 46 53 49 46 54 60 62 58 51 71 87 82 73 74 84 86 84 74 68 64 58 54 52 54 54 54 51 51 42 41 42
43 50 48 48 23 34 39 43 47 50 50 63 65 60 55 55 48 43 43 48 45 44 51 60 69 61 57 64 63 75 64 66 76 92 85 78 74 66 61 57 57 56 55 58 57 56 55 45 50
45 48 51 46 25 22 28 19 31 38 39 43 60 60 59 57 52 41 45 43 43 42 52 65 65 58 62 80 78 83 83 85 88 95 87 81 82 72 68 61 61 60 62 62 61 61 62 55 55
37 23 24 33 29 36 45 16 34 39 36 42 45 54 58 59 50 43 47 43 41 43 49 58 61 71 75 68 84 83 84 81 79 84 88 87 83 77 72 68 64 65 66 63 65 67 65 62 59
7 4 9 18 19 23 36 33 33 35 43 45 47 53 59 45 40 47 45 37 35 36 41 52 56 54 46 75 84 83 70 77 83 85 80 88 85 81 76 73 70 68 68 68 70 69 67 67 68
9 12 6 9 11 16 4 23 35 21 17 18 26 51 43 46 49 46 40 36 31 31 31 41 45 45 39 54 45 58 66 43 72 66 79 84 89 87 82 77 75 74 72 72 74 73 75 76 77
20 14 9 12 10 9 7 13 6 23 28 40 41 45 50 53 46 41 38 37 32 30 32 30 30 28 27 29 26 35 40 48 47 56 68 85 88 86 85 86 82 78 78 76 75 80 86 81 92
11 19 10 11 11 13 12 3 7 32 16 20 42 41 46 46 46 39 37 36 34 33 37 37 36 28 25 28 30 34 47 55 60 61 57 99 84 76 76 82 91 82 79 78 81 77 83 84 88
11 3 8 10 8 9 8 6 21 30 20 24 31 37 48 44 49 44 41 43 40 39 37 32 29 23 16 19 18 22 32 43 47 49 68 71 87 66 59 53 51 62 58 53 55 71 65 67 61
14 10 11 7 11 9 6 7 25 25 21 20 23 39 47 51 53 49 47 50 49 42 38 31 27 21 21 17 16 11 13 14 22 24 30 24 35 27 25 44 48 62 69 59 56 55 45 49 42
15 20 9 8 5 9 5 9 29 22 22 23 38 43 49 60 54 51 52 58 63 56 47 42 36 28 24 24 25 25 19 19 19 26 23 21 24 23 19 27 32 32 30 33 33 42 34 36 33
Wind_Direction_850mb
251 260 274 310 241 235 237 226 257 196 196 193 175 213 228 282 214 263 310 290 198 179 182 181 183 184 178 181 180 177 177 177 173 175 169 166 152 134 129 122 128 140 136 142 147 134 126 132 132
234 242 253 246 243 238 233 229 228 220 144 165 246 227 244 249 252 278 293 261 211 178 184 182 184 188 183 182 184 180 180 180 177 178 174 171 159 140 127 133 149 157 145 143 146 136 131 134 133
223 205 224 220 237 241 243 199 242 227 229 260 268 248 244 232 268 278 301 267 194 180 184 185 184 188 185 185 183 181 180 179 178 176 173 171 164 152 140 146 158 148 153 145 152 134 137 134 129
182 196 233 238 238 237 248 243 249 247 240 238 245 254 235 239 306 298 298 282 196 184 184 188 184 187 187 188 186 184 184 180 178 176 174 176 167 151 170 164 176 156 156 153 143 139 137 135 131
191 209 230 235 247 245 218 257 241 248 249 207 213 230 259 285 293 306 297 262 200 187 189 190 187 187 189 192 191 191 191 189 185 185 182 181 173 165 185 160 171 163 157 169 148 143 138 134 133
201 229 230 232 236 239 240 223 228 236 245 250 258 267 266 269 310 311 294 226 195 189 191 192 192 190 194 196 197 196 198 195 194 192 188 186 180 181 185 164 164 167 170 170 158 148 143 139 137
239 216 240 245 243 239 230 221 233 240 240 234 253 266 275 303 312 333 239 210 197 190 193 194 198 196 199 198 199 199 201 199 197 196 193 190 185 189 190 182 180 179 178 176 170 163 153 147 143
236 256 246 240 245 246 226 232 238 234 250 250 245 251 256 279 326 342 214 197 200 195 196 195 200 202 201 200 201 202 200 202 195 195 198 194 190 196 196 195 203 197 187 182 179 175 166 160 154
214 244 248 243 240 244 242 252 234 274 262 232 231 239 265 316 314 316 244 202 198 197 200 199 201 203 203 202 200 197 193 189 190 191 196 191 193 197 199 205 222 203 192 187 184 185 179 175 173
220 239 257 272 298 254 285 259 285 288 233 237 236 233 293 337 307 282 260 219 209 205 204 202 206 207 206 202 201 194 189 190 193 189 189 194 194 197 190 206 205 198 192 192 192 192 190 187 186
231 248 286 261 287 296 282 277 267 262 250 241 262 289 276 296 300 269 260 241 230 224 206 206 210 211 211 204 198 190 192 189 192 191 191 194 196 201 202 208 211 208 197 197 198 198 197 195 193
263 255 261 272 283 292 275 282 270 260 266 277 279 285 295 289 289 276 260 258 247 225 217 213 217 214 214 210 203 198 194 191 191 194 191 199 203 201 207 205 205 205 202 203 203 204 205 205 206
257 269 269 269 267 269 274 264 266 269 265 272 278 280 280 278 281 276 267 256 259 230 217 219 231 222 217 212 207 205 202 198 194 196 200 206 207 209 210 213 216 208 206 207 208 209 212 215 213
289 284 280 270 267 266 266 265 259 256 267 266 268 275 269 264 273 275 274 258 255 246 226 219 222 229 224 214 212 208 207 204 203 204 206 206 210 212 216 216 215 210 209 211 211 214 216 218 214
284 290 289 268 252 250 256 265 250 258 252 259 257 264 266 261 264 269 270 261 253 252 233 231 224 233 228 217 214 210 209 209 206 209 207 210 214 217 221 222 217 213 212 212 214 213 215 213 210
276 278 283 312 230 235 203 268 261 267 234 247 248 252 257 262 263 261 263 260 256 254 246 232 228 228 227 224 218 214 208 212 211 211 209 213 220 223 225 226 219 214 214 215 213 213 212 204 200
222 265 249 271 236 233 207 265 277 261 248 257 261 253 256 260 259 256 258 256 256 257 245 232 225 231 232 230 225 221 210 214 213 217 217 220 226 230 230 227 219 212 214 216 215 213 208 203 201
243 240 252 251 129 220 232 249 262 268 264 262 261 257 251 261 253 255 254 258 260 254 239 238 227 227 226 227 223 223 217 215 217 221 222 222 225 232 229 223 219 213 215 216 214 211 206 200 204
272 268 269 271 279 252 242 254 263 262 262 260 257 256 253 259 260 256 251 259 253 256 237 235 219 222 225 221 214 216 221 217 219 222 226 223 226 230 228 223 222 218 217 217 215 208 200 202 204
249 257 259 269 254 236 258 258 261 263 258 259 260 250 249 252 253 251 239 248 243 246 230 234 226 220 218 230 222 222 223 222 220 224 226 224 226 229 228 225 224 218 215 213 210 206 203 206 209
237 239 256 254 279 237 265 268 263 258 249 253 252 249 247 247 252 244 239 236 234 236 225 231 227 222 227 231 231 228 228 227 231 231 226 223 227 230 229 228 226 221 218 216 214 209 207 209 211
255 238 250 262 256 250 201 269 262 251 243 241 248 239 234 238 240 241 234 227 223 220 221 219 222 220 227 245 234 228 217 216 223 228 226 227 228 228 227 229 228 224 222 220 218 214 214 214 216
268 287 235 240 251 264 248 254 258 250 255 247 245 236 226 229 229 217 225 216 217 212 220 215 215 220 219 221 228 225 224 221 221 229 227 227 228 228 229 229 228 225 226 226 222 221 221 223 221
294 128 202 237 246 247 249 220 263 245 243 254 243 224 217 211 194 208 209 197 198 206 211 217 230 211 215 204 219 218 216 229 228 226 234 232 229 228 229 229 229 227 227 227 225 226 228 229 228
163 160 210 224 218 254 312 208 253 323 238 241 263 213 186 170 188 189 184 178 178 183 189 212 220 222 219 210 208 216 231 225 209 234 237 239 230 230 230 230 229 227 228 229 230 231 233 232 231
192 192 195 239 224 287 145 238 231 314 272 259 256 165 150 160 170 170 166 163 171 173 168 169 194 193 206 224 217 225 238 251 238 237 241 236 245 238 232 233 231 230 231 234 237 239 241 243 238
169 218 204 275 244 272 200 307 212 349 314 157 120 133 115 136 152 146 142 150 154 158 156 161 175 186 210 226 234 243 251 256 249 256 261 227 236 244 242 240 231 229 234 239 240 256 248 252 246
258 114 193 212 265 234 93 54 336 339 6 114 108 107 107 121 130 126 128 135 134 138 140 144 155 165 181 236 250 253 248 249 252 257 245 238 232 228 215 224 232 222 241 259 262 246 247 253 230
319 269 247 233 236 313 62 23 343 8 26 74 95 99 102 105 113 115 119 121 119 122 128 129 134 141 169 181 179 188 197 208 217 209 206 186 199 213 242 226 229 245 250 257 225 228 235 225 231
293 292 235 271 76 48 81 42 353 21 35 65 78 85 90 105 106 112 115 114 110 110 109 108 105 112 119 127 132 132 128 119 142 162 166 181 203 188 211 239 228 223 213 224 209 199 207 205 187